Torna al catalogo

TITAN 3C TRANSTAGE DEB

LostHEO
NORAD 29013·DEBRIS·🇺🇸 United States

Lanciato Dec 21, 1965 da Cape Canaveral Space Force Station

Loading…

Prossimi Passaggi (prossime 24 ore)

TLE

ObsoletoSource: Space-Track

Epoca: Jan 19, 2026, 05:05 UTC

1 29013U 65108CV  26019.21182183 -.00000194  00000-0 -72613-3 0  9997
2 29013  26.6737   4.2721 6781376 154.7185 352.9266  2.69137804126331

Traccia TITAN 3C TRANSTAGE DEB in tempo reale con AllMySat

Download on the App Store